Change the Weather History Date:

Wednesday, February 19, 2014

  Actual Average Record
Temperature  
Mean Temperature 34 °F -  
Max Temperature 49 °F 38 °F 52 °F (2011)
Min Temperature 19 °F 21 °F 0 °F (2015)
Degree Days  
Heating Degree Days 31    
Moisture  
Dew Point 30 °F    
Average Humidity 75    
Maximum Humidity 99    
Minimum Humidity 40    
Precipitation  
Precipitation 0.00 in - - ()
Sea Level Pressure  
Sea Level Pressure 29.82 in    
Wind  
Wind Speed 6 mph (SSE)    
Max Wind Speed 17 mph    
Max Gust Speed 23 mph    
Visibility 10 miles    
Events Rain    
Averages and records for this station are not official NWS values.
T = Trace of Precipitation, MM = Missing Value Source: NWS Daily Summary

Daily Weather History Graph

Daily Weather History Graph

Search for Another Location

Airport or City:

Trip Planner

Search our weather history database for the weather conditions in past years. The results will help you decide how hot, cold, wet, or windy it might be!

Date:

Astronomy

Feb. 19, 2014 Rise Set
Actual Time 7:12 AM CST 6:02 PM CST
Civil Twilight 6:44 AM CST 6:30 PM CST
Nautical Twilight 6:12 AM CST 7:03 PM CST
Astronomical Twilight 5:40 AM CST 7:34 PM CST
Moon 11:00 PM CST (2/19) 9:16 AM CST (2/19)
Length of Visible Light 11h 46m
Length of Day
10h 50m
Waning Gibbous, 79% of the Moon is Illuminated
Feb 19
Waning Gibbous
Feb 22
Last Quarter
Mar 1
New
Mar 8
First Quarter
Mar 16
Full

Hourly Weather History & Observations

Time (CST) Temp. Windchill Dew Point Humidity Pressure Visibility Wind Dir Wind Speed Gust Speed Precip Events Conditions
12:58 AM 37.2 °F 33.6 °F 27.9 °F 69% 29.97 in 10.0 mi West 4.6 mph - N/A   Clear
1:58 AM 33.3 °F 27.9 °F 27.9 °F 81% 29.97 in 10.0 mi West 5.8 mph - N/A   Clear
2:58 AM 28.4 °F 24.6 °F 26.6 °F 93% 29.99 in 10.0 mi SW 3.5 mph - N/A   Clear
3:58 AM 25.0 °F - 23.9 °F 96% 29.97 in 10.0 mi Calm Calm - N/A   Clear
4:58 AM 21.4 °F - 21.0 °F 99% 29.95 in 10.0 mi Calm Calm - N/A   Clear
5:58 AM 21.9 °F - 21.6 °F 99% 29.96 in 10.0 mi Calm Calm - N/A   Clear
6:58 AM 19.8 °F - 19.6 °F 99% 29.99 in 10.0 mi Calm Calm - N/A   Clear
7:58 AM 21.4 °F - 21.2 °F 99% 29.99 in 10.0 mi Calm Calm - N/A   Clear
8:58 AM 30.4 °F - 29.3 °F 96% 29.98 in 10.0 mi Calm Calm - N/A   Clear
9:58 AM 34.5 °F - 30.6 °F 85% 29.98 in 10.0 mi Calm Calm - N/A   Clear
10:58 AM 40.5 °F 35.8 °F 30.9 °F 69% 29.96 in 10.0 mi South 6.9 mph - N/A   Clear
11:58 AM 47.3 °F - 30.4 °F 52% 29.94 in 10.0 mi SSE 6.9 mph - N/A   Clear
12:58 PM 47.7 °F - 27.7 °F 46% 29.89 in 10.0 mi SSE 9.2 mph - N/A   Scattered Clouds
1:58 PM 48.2 °F - 27.1 °F 44% 29.86 in 10.0 mi SE 12.7 mph - N/A   Partly Cloudy
2:58 PM 48.7 °F - 25.3 °F 40% 29.81 in 10.0 mi SE 16.1 mph - N/A   Partly Cloudy
3:58 PM 49.3 °F - 26.1 °F 40% 29.80 in 10.0 mi SSE 13.8 mph - N/A   Mostly Cloudy
4:58 PM 48.0 °F - 25.7 °F 42% 29.76 in 10.0 mi SSE 16.1 mph 23.0 mph N/A   Clear
5:58 PM 44.4 °F 38.6 °F 31.3 °F 60% 29.73 in 10.0 mi ESE 11.5 mph - N/A   Partly Cloudy
6:58 PM 42.6 °F 38.4 °F 33.6 °F 70% 29.73 in 10.0 mi ESE 6.9 mph - N/A   Clear
7:58 PM 41.2 °F 39.2 °F 34.0 °F 76% 29.70 in 10.0 mi SE 3.5 mph - N/A   Partly Cloudy
8:58 PM 39.7 °F 34.3 °F 33.4 °F 78% 29.70 in 10.0 mi SE 8.1 mph - N/A   Partly Cloudy
9:58 PM 41.5 °F 35.9 °F 32.5 °F 70% 29.69 in 10.0 mi SE 9.2 mph - N/A   Overcast
10:33 PM 42.8 °F 34.8 °F 33.8 °F 70% 29.62 in 10.0 mi SE 17.3 mph 21.9 mph N/A Rain Light Rain
10:54 PM 41.0 °F 34.3 °F 37.4 °F 87% 29.61 in 10.0 mi SE 11.5 mph - N/A   Overcast
10:56 PM 41.0 °F 34.3 °F 37.4 °F 87% 29.60 in 10.0 mi SE 11.5 mph - N/A Rain Light Rain
10:58 PM 41.0 °F 34.7 °F 37.4 °F 87% 29.63 in 10.0 mi SE 10.4 mph - 0.00 in Rain Light Rain
11:08 PM 41.0 °F 34.7 °F 37.4 °F 87% 29.61 in 10.0 mi SE 10.4 mph - N/A   Overcast
11:58 PM 40.6 °F 34.8 °F 37.0 °F 87% 29.62 in 10.0 mi SE 9.2 mph - 0.00 in   Overcast